Change the Weather History Date:

Friday, October 14, 2011

  Actual Average Record
Temperature  
Mean Temperature 73 °F -  
Max Temperature 87 °F 78 °F 91 °F (1999)
Min Temperature 59 °F 59 °F 46 °F (2001)
Cooling Degree Days 8    
Growing Degree Days 23 (Base 50)    
Moisture  
Dew Point 48 °F    
Average Humidity 47    
Maximum Humidity 75    
Minimum Humidity 19    
Precipitation  
Precipitation 0.00 in - - ()
Sea Level Pressure  
Sea Level Pressure 29.94 in    
Wind  
Wind Speed 2 mph (ESE)    
Max Wind Speed 9 mph    
Max Gust Speed -    
Visibility 10 miles    
Events      
Averages and records for this station are not official NWS values.
T = Trace of Precipitation, MM = Missing Value Source: NWS Daily Summary

Daily Weather History Graph

Daily Weather History Graph

Search for Another Location

Airport or City:

Trip Planner

Search our weather history database for the weather conditions in past years. The results will help you decide how hot, cold, wet, or windy it might be!

Date:

Astronomy

Oct. 14, 2011 Rise Set
Actual Time 7:34 AM CDT 7:04 PM CDT
Civil Twilight 7:10 AM CDT 7:28 PM CDT
Nautical Twilight 6:42 AM CDT 7:56 PM CDT
Astronomical Twilight 6:15 AM CDT 8:23 PM CDT
Moon 8:36 PM CDT (10/14) 9:48 AM CDT (10/14)
Length of Visible Light 12h 18m
Length of Day
11h 30m
Waning Gibbous, 94% of the Moon is Illuminated
Oct 14
Waning Gibbous
Oct 19
Last Quarter
Oct 26
New
Nov 2
First Quarter
Nov 10
Full

Hourly Weather History & Observations

Time (CDT) Temp. Dew Point Humidity Pressure Visibility Wind Dir Wind Speed Gust Speed Precip Events Conditions
12:53 AM 63.0 °F 52.0 °F 67% 29.92 in 10.0 mi Calm Calm - N/A   Clear
1:53 AM 61.0 °F 52.0 °F 72% 29.92 in 10.0 mi Calm Calm - N/A   Clear
2:53 AM 61.0 °F 51.1 °F 70% 29.93 in 10.0 mi Calm Calm - N/A   Clear
3:53 AM 60.1 °F 52.0 °F 75% 29.93 in 10.0 mi Calm Calm - N/A   Clear
4:53 AM 60.1 °F 50.0 °F 69% 29.93 in 10.0 mi North 3.5 mph - N/A   Clear
5:53 AM 59.0 °F 50.0 °F 72% 29.94 in 10.0 mi Calm Calm - N/A   Clear
6:53 AM 60.1 °F 46.9 °F 62% 29.94 in 10.0 mi NE 9.2 mph - N/A   Clear
8:53 AM 68.0 °F 45.0 °F 43% 29.98 in 10.0 mi NE 4.6 mph - N/A   Clear
9:53 AM 73.0 °F 44.1 °F 35% 30.00 in 10.0 mi Calm Calm - N/A   Clear
10:53 AM 75.9 °F 46.0 °F 35% 30.01 in 10.0 mi ESE 5.8 mph - N/A   Clear
11:53 AM 79.0 °F 43.0 °F 28% 30.00 in 10.0 mi South 4.6 mph - N/A   Clear
12:53 PM 82.0 °F 41.0 °F 23% 29.99 in 10.0 mi ESE 6.9 mph - N/A   Clear
2:53 PM 84.9 °F 43.0 °F 23% 29.93 in 10.0 mi Calm Calm - N/A   Clear
3:53 PM 87.1 °F 42.1 °F 21% 29.91 in 10.0 mi Calm Calm - N/A   Clear
4:53 PM 87.1 °F 39.9 °F 19% 29.90 in 10.0 mi Calm Calm - N/A   Clear
5:53 PM 86.0 °F 43.0 °F 22% 29.89 in 10.0 mi SE 5.8 mph - N/A   Clear
6:53 PM 82.0 °F 46.0 °F 28% 29.91 in 10.0 mi SE 3.5 mph - N/A   Clear
7:53 PM 73.9 °F 52.0 °F 46% 29.92 in 10.0 mi Calm Calm - N/A   Clear
8:53 PM 70.0 °F 52.0 °F 53% 29.93 in 10.0 mi Calm Calm - N/A   Clear
9:53 PM 68.0 °F 53.1 °F 59% 29.95 in 10.0 mi Calm Calm - N/A   Clear
10:53 PM 68.0 °F 52.0 °F 56% 29.96 in 10.0 mi SSE 3.5 mph - N/A   Clear
11:53 PM 68.0 °F 53.1 °F 59% 29.97 in 10.0 mi Calm Calm - N/A   Clear